Weather History for Tillamook, OR

Change the Weather History Date:

Friday, January 31, 2014

  Actual Average (KMMV) Record (KMMV)
Temperature  
Mean Temperature 42 °F 42 °F  
Max Temperature 46 °F 49 °F 61 °F (1958)
Min Temperature 37 °F 35 °F -7 °F (1950)
Degree Days  
Heating Degree Days 24 23  
Month to date heating degree days 748  
Since 1 July heating degree days 2755  
Cooling Degree Days 0 0  
Month to date cooling degree days 0  
Year to date cooling degree days 0  
Moisture  
Dew Point 42 °F    
Average Humidity 100    
Maximum Humidity 100    
Minimum Humidity 93    
Precipitation  
Precipitation 0.32 in 0.16 in 1.92 in (1997)
Month to date precipitation 6.10  
Year to date precipitation 6.10  
Sea Level Pressure  
Sea Level Pressure 30.11 in    
Wind  
Wind Speed 1 mph (SSE)    
Max Wind Speed 9 mph    
Max Gust Speed -    
Visibility 9 miles    
Events Rain    
T = Trace of Precipitation, MM = Missing Value Source: NWS Daily Summary

Daily Weather History Graph

Daily Weather History Graph

Search for Another Location

Airport:

Trip Planner

Search our weather history database for the weather conditions in past years. The results will help you decide how hot, cold, wet, or windy it might be!

Date:

Astronomy

Jan. 31, 2014 Rise Set
Actual Time 8:37 AM MST 6:20 PM MST
Civil Twilight 8:05 AM MST 6:52 PM MST
Nautical Twilight 7:30 AM MST 7:28 PM MST
Astronomical Twilight 6:55 AM MST 8:02 PM MST
Moon 8:45 AM MST (1/31) 7:58 PM MST (1/31)
Length of Visible Light 10h 47m
Length of Day
9h 43m
New Moon, 1% of the Moon is Illuminated
Jan 31
New Moon
Feb 6
First Quarter
Feb 14
Full
Feb 22
Last Quarter
Mar 1
New

Hourly Weather History & Observations

Time (MST) Temp. Windchill Dew Point Humidity Pressure Visibility Wind Dir Wind Speed Gust Speed Precip Events Conditions
12:15 AM 41.0 °F - 41.0 °F 100% 30.02 in 10.0 mi Calm Calm - N/A   Light Drizzle
12:35 AM 41.0 °F - 41.0 °F 100% 30.02 in 10.0 mi Calm Calm - N/A   Overcast
12:55 AM 41.0 °F - 41.0 °F 100% 30.03 in 10.0 mi Calm Calm - N/A   Overcast
1:15 AM 41.0 °F - 41.0 °F 100% 30.02 in 10.0 mi Calm Calm - N/A   Overcast
1:35 AM 41.0 °F - 41.0 °F 100% 30.02 in 10.0 mi Calm Calm - N/A   Overcast
1:55 AM 41.0 °F - 41.0 °F 100% 30.03 in 10.0 mi Calm Calm - N/A   Drizzle
2:15 AM 42.8 °F - 42.8 °F 100% 30.02 in 10.0 mi Calm Calm - N/A   Overcast
2:35 AM 41.0 °F - 41.0 °F 100% 30.02 in 10.0 mi Calm Calm - N/A Rain Light Rain
2:55 AM 42.8 °F 38.6 °F 42.8 °F 100% 30.03 in 7.0 mi SW 6.9 mph - 0.01 in Rain Light Rain
3:15 AM 41.0 °F - 41.0 °F 100% 30.03 in 10.0 mi Calm Calm - N/A   Overcast
3:35 AM 41.0 °F - 41.0 °F 100% 30.04 in 10.0 mi Calm Calm - N/A   Light Drizzle
3:55 AM 41.0 °F - 41.0 °F 100% 30.04 in 10.0 mi Calm Calm - 0.01 in   Overcast
4:15 AM 41.0 °F - 41.0 °F 100% 30.04 in 10.0 mi Calm Calm - N/A   Drizzle
4:35 AM 41.0 °F - 41.0 °F 100% 30.03 in 10.0 mi Calm Calm - N/A   Light Drizzle
4:55 AM 41.0 °F - 41.0 °F 100% 30.03 in 10.0 mi Calm Calm - N/A Rain Rain
5:15 AM 41.0 °F - 41.0 °F 100% 30.05 in 4.0 mi Calm Calm - 0.04 in Rain Rain
5:35 AM 41.0 °F - 41.0 °F 100% 30.05 in 4.0 mi Calm Calm - 0.10 in Rain Rain
5:55 AM 41.0 °F - 41.0 °F 100% 30.06 in 7.0 mi Calm Calm - 0.12 in Rain Light Rain
6:15 AM 41.0 °F - 41.0 °F 100% 30.06 in 10.0 mi Calm Calm - 0.01 in Rain Light Rain
6:35 AM 41.0 °F - 41.0 °F 100% 30.06 in 7.0 mi Calm Calm - 0.02 in Rain Light Rain
6:55 AM 41.0 °F - 41.0 °F 100% 30.06 in 10.0 mi Calm Calm - 0.02 in   Drizzle
7:15 AM 41.0 °F - 41.0 °F 100% 30.06 in 10.0 mi Calm Calm - N/A Rain Light Rain
7:35 AM 41.0 °F - 41.0 °F 100% 30.06 in 10.0 mi Calm Calm - N/A   Overcast
7:55 AM 41.0 °F - 41.0 °F 100% 30.06 in 10.0 mi Calm Calm - N/A   Overcast
8:15 AM 41.0 °F - 41.0 °F 100% 30.07 in 2.5 mi Calm Calm - 0.04 in Rain Rain
8:35 AM 39.2 °F - 39.2 °F 100% 30.07 in 4.0 mi Calm Calm - 0.10 in Rain Rain
8:55 AM 41.0 °F - 41.0 °F 100% 30.08 in 10.0 mi Calm Calm - 0.11 in   Light Drizzle
9:15 AM 41.0 °F - 41.0 °F 100% 30.08 in 5.0 mi Calm Calm - N/A   Drizzle
9:35 AM 41.0 °F - 41.0 °F 100% 30.09 in 5.0 mi Calm Calm - 0.01 in Rain Rain
9:55 AM 41.0 °F - 41.0 °F 100% 30.10 in 10.0 mi Calm Calm - 0.02 in   Overcast
10:15 AM 41.0 °F - 41.0 °F 100% 30.10 in 10.0 mi Calm Calm - N/A Rain Light Rain
10:35 AM 42.8 °F - 42.8 °F 100% 30.11 in 10.0 mi Calm Calm - N/A   Overcast
10:55 AM 42.8 °F - 42.8 °F 100% 30.12 in 10.0 mi Calm Calm - N/A   Overcast
11:15 AM 42.8 °F 39.3 °F 42.8 °F 100% 30.12 in 10.0 mi SSE 5.8 mph - N/A   Overcast
11:35 AM 42.8 °F - 42.8 °F 100% 30.13 in 10.0 mi Calm Calm - N/A   Overcast
11:55 AM 42.8 °F 38.6 °F 42.8 °F 100% 30.14 in 10.0 mi South 6.9 mph - N/A   Overcast
12:15 PM 42.8 °F - 42.8 °F 100% 30.14 in 7.0 mi Calm Calm - N/A Rain Light Rain
12:35 PM 42.8 °F 37.5 °F 42.8 °F 100% 30.14 in 10.0 mi SE 9.2 mph - N/A   Overcast
12:55 PM 44.6 °F 41.4 °F 44.6 °F 100% 30.14 in 10.0 mi SSE 5.8 mph - N/A   Overcast
1:15 PM 44.6 °F - 44.6 °F 100% 30.14 in 10.0 mi Calm Calm - N/A   Overcast
1:35 PM 44.6 °F - 44.6 °F 100% 30.14 in 10.0 mi Calm Calm - N/A   Mostly Cloudy
1:55 PM 44.6 °F 40.7 °F 44.6 °F 100% 30.13 in 10.0 mi SSE 6.9 mph - N/A   Overcast
2:15 PM 44.6 °F - 44.6 °F 100% 30.13 in 10.0 mi Calm Calm - N/A   Overcast
2:35 PM 46.4 °F 42.4 °F 44.6 °F 93% 30.13 in 10.0 mi SE 8.1 mph - N/A   Overcast
2:55 PM 46.4 °F 42.4 °F 44.6 °F 93% 30.13 in 10.0 mi SSE 8.1 mph - N/A   Overcast
3:15 PM 44.6 °F 39.7 °F 44.6 °F 100% 30.13 in 10.0 mi South 9.2 mph - N/A   Mostly Cloudy
3:35 PM 44.6 °F 40.7 °F 44.6 °F 100% 30.13 in 10.0 mi South 6.9 mph - 0.01 in   Mostly Cloudy
3:55 PM 44.6 °F - 42.8 °F 93% 30.14 in 10.0 mi Calm Calm - 0.01 in Rain Light Rain
4:15 PM 44.6 °F - 44.6 °F 100% 30.14 in 10.0 mi Calm Calm - N/A Rain Light Rain
4:35 PM 42.8 °F - 42.8 °F 100% 30.14 in 5.0 mi Calm Calm - 0.01 in Rain Rain
4:55 PM 44.6 °F - 44.6 °F 100% 30.14 in 7.0 mi Calm Calm - 0.02 in   Overcast
5:15 PM 44.6 °F - 44.6 °F 100% 30.15 in 10.0 mi Calm Calm - N/A   Overcast
5:35 PM 44.6 °F - 44.6 °F 100% 30.15 in 10.0 mi Calm Calm - N/A   Overcast
5:55 PM 44.6 °F - 44.6 °F 100% 30.15 in 10.0 mi Calm Calm - N/A   Overcast
6:15 PM 44.6 °F - 44.6 °F 100% 30.16 in 10.0 mi Calm Calm - N/A   Mostly Cloudy
6:35 PM 42.8 °F - 42.8 °F 100% 30.16 in 10.0 mi Calm Calm - N/A   Scattered Clouds
6:55 PM 42.8 °F - 42.8 °F 100% 30.16 in 10.0 mi Calm Calm - N/A   Scattered Clouds
7:15 PM 42.8 °F - 42.8 °F 100% 30.16 in 10.0 mi Calm Calm - N/A   Overcast
7:35 PM 42.8 °F - 42.8 °F 100% 30.16 in 10.0 mi Calm Calm - N/A   Mostly Cloudy
7:55 PM 41.0 °F - 41.0 °F 100% 30.16 in 7.0 mi Calm Calm - N/A   Clear
8:15 PM 41.0 °F - 41.0 °F 100% 30.17 in 7.0 mi Calm Calm - N/A   Scattered Clouds
8:35 PM 41.0 °F - 41.0 °F 100% 30.16 in 5.0 mi Calm Calm - N/A   Mostly Cloudy
8:55 PM 41.0 °F - 41.0 °F 100% 30.16 in 10.0 mi Calm Calm - N/A   Mostly Cloudy
9:15 PM 39.2 °F - 39.2 °F 100% 30.17 in 10.0 mi Calm Calm - N/A   Mostly Cloudy
9:35 PM 41.0 °F - 41.0 °F 100% 30.17 in 10.0 mi Calm Calm - N/A   Overcast
9:55 PM 39.2 °F - 39.2 °F 100% 30.17 in 7.0 mi Calm Calm - N/A   Overcast
10:15 PM 39.2 °F - 39.2 °F 100% 30.17 in 7.0 mi Calm Calm - N/A Rain Light Rain
10:35 PM 41.0 °F - 41.0 °F 100% 30.17 in 10.0 mi Calm Calm - N/A   Overcast
10:55 PM 39.2 °F - 39.2 °F 100% 30.18 in 7.0 mi Calm Calm - N/A   Overcast
11:15 PM 39.2 °F - 39.2 °F 100% 30.18 in 7.0 mi Calm Calm - N/A   Overcast
11:35 PM 37.4 °F - 37.4 °F 100% 30.18 in 5.0 mi Calm Calm - N/A   Overcast
11:55 PM 37.4 °F - 37.4 °F 100% 30.18 in 5.0 mi Calm Calm - N/A   Overcast